Theta_e
287 287 287 287 289 288 287 287 284 278 279 282 283 288 289 290 291 291 290 292 296 296 295 295 296 297 299 301 301 301 305 306 305 304 305 306 306 307
285 283 283 283 283 283 283 285 285 283 278 282 283 285 288 289 290 289 288 291 292 295 295 293 294 295 295 298 298 298 298 300 301 300 299 301 303 303
282 282 282 283 283 282 282 281 281 281 278 280 282 285 285 286 286 286 287 288 288 290 293 294 294 293 293 294 296 295 295 296 297 298 298 298 299 301
282 281 281 282 279 279 279 279 279 280 279 278 281 282 282 283 283 283 285 286 286 287 291 291 293 294 293 292 294 295 295 295 295 295 296 297 297 299
281 280 280 280 278 279 279 279 279 281 282 281 281 281 281 282 282 283 282 283 285 287 287 288 290 291 294 294 294 294 294 295 294 294 295 295 297 298
281 281 280 279 279 279 279 278 279 279 279 279 279 280 281 282 281 280 280 281 282 284 285 286 287 289 291 292 294 294 294 294 294 294 294 293 293 295
281 281 281 282 284 283 281 279 278 278 278 278 277 278 278 279 278 280 279 279 280 282 282 282 283 285 287 288 289 292 294 294 294 294 294 293 293 293
279 280 280 281 280 282 281 281 280 278 277 277 277 277 278 279 279 279 278 277 276 281 280 280 283 283 284 286 287 289 291 292 294 294 294 293 292 292
277 277 278 279 279 278 279 280 280 281 280 280 278 278 278 280 280 279 278 278 278 280 280 279 281 281 284 285 287 288 290 290 291 292 293 292 291 290
277 277 277 277 277 278 278 278 279 279 280 280 279 280 280 281 281 281 280 279 280 281 281 277 282 281 283 283 285 287 288 289 290 291 291 291 291 290
277 277 277 277 278 281 280 278 278 279 282 283 283 284 283 283 283 281 279 279 276 279 280 280 280 279 280 282 283 285 287 288 289 290 290 290 291 290
276 277 278 278 279 280 278 277 275 278 279 279 281 281 282 282 282 281 280 277 278 276 279 279 279 279 278 280 281 283 283 286 288 289 290 291 291 291
275 276 277 278 279 279 279 277 277 279 278 278 279 280 281 281 281 281 280 278 277 277 281 281 278 278 280 280 280 282 281 282 284 287 289 290 290 290
275 276 276 278 278 278 277 278 278 277 277 277 276 277 278 279 281 282 282 281 282 280 283 283 281 280 280 278 279 281 282 281 281 282 283 283 286 289
275 275 276 276 276 276 276 277 276 275 275 274 274 275 277 279 281 281 283 284 284 283 283 284 283 282 282 280 281 281 282 283 280 281 280 282 284 284
272 271 271 274 271 273 274 274 274 274 273 273 273 275 277 277 278 280 280 281 280 281 284 284 285 284 283 282 282 282 283 281 281 282 281 281 282 284
266 265 267 267 269 270 271 272 272 272 271 271 272 273 273 275 276 279 279 278 277 278 280 282 283 284 285 284 282 282 282 282 283 283 281 280 282 284
267 262 258 258 262 268 269 269 270 269 269 270 270 271 271 272 274 276 276 276 275 277 278 279 278 281 282 281 283 282 282 282 282 282 281 280 281 284
264 262 256 256 260 266 268 268 268 267 268 267 268 268 269 271 272 273 273 274 274 275 276 278 279 276 273 273 276 282 279 279 276 276 278 281 281 283
265 263 260 260 263 266 267 267 267 266 265 265 266 265 266 268 270 271 271 270 271 273 274 275 275 276 276 275 276 277 280 278 277 276 276 277 278 280
265 265 262 263 264 264 260 260 260 264 263 263 263 264 263 266 268 269 270 268 268 271 271 272 273 275 276 277 274 275 276 279 279 278 278 277 276 279
263 264 265 264 262 261 258 256 259 261 263 264 263 263 263 264 266 267 267 267 269 269 269 272 275 277 277 276 275 273 276 277 279 278 280 279 277 274
262 263 262 260 260 259 263 259 259 256 261 263 263 264 263 263 265 266 267 267 268 268 268 270 272 274 275 275 275 274 273 275 276 276 277 278 280 281
Wind_Speed
5 5 4 3 3 3 1 1 2 4 7 3 4 5 5 4 7 4 4 9 11 10 9 8 11 11 15 14 9 14 8 13 12 12 11 10 10 10
1 3 2 2 3 2 3 3 3 6 11 3 7 5 5 7 8 5 5 9 11 10 10 8 5 8 10 11 6 4 8 10 6 9 8 8 9 9
2 3 5 4 3 4 4 3 5 4 10 9 4 6 7 9 6 4 4 4 4 10 8 11 11 3 4 7 7 2 2 7 9 4 7 7 8 10
4 5 5 5 5 5 3 6 6 6 7 13 10 6 6 6 5 4 5 5 3 10 10 10 9 9 6 4 8 8 8 7 6 5 8 7 7 9
4 5 5 5 7 5 6 6 6 7 7 8 10 3 3 3 4 4 4 3 5 9 10 10 9 12 10 9 10 12 9 11 12 11 12 10 12 6
4 5 6 7 8 8 8 7 6 6 8 9 8 8 5 5 3 5 5 3 5 5 8 11 13 12 12 8 15 15 11 9 11 13 14 12 10 12
5 6 6 10 19 16 9 6 7 7 8 9 8 8 7 6 6 3 4 4 5 5 5 5 4 4 3 4 4 4 8 10 13 15 17 19 18 12
7 7 7 13 12 16 19 20 16 11 11 9 8 9 10 7 7 6 5 3 4 2 2 2 0 3 5 4 8 8 7 6 8 10 13 15 15 15
7 8 10 8 14 10 15 18 17 20 16 11 11 8 10 8 8 9 7 6 6 3 2 6 2 4 4 5 9 10 9 9 9 8 9 11 13 12
8 9 9 10 9 13 11 11 12 12 12 9 10 10 10 9 9 9 9 7 6 6 5 6 4 6 4 5 14 15 15 13 12 11 10 10 10 12
9 9 9 8 14 20 12 9 11 11 12 18 19 19 19 19 16 7 8 8 4 3 5 5 3 3 3 5 5 12 16 16 15 14 12 11 11 10
7 8 13 13 17 18 9 8 9 9 10 10 10 11 13 11 15 8 6 9 6 5 5 6 4 3 3 1 2 2 3 11 14 14 13 12 11 6
6 7 6 17 19 17 16 8 11 11 10 8 8 7 5 6 6 7 8 8 8 9 2 4 2 2 2 2 1 1 1 1 4 5 9 11 12 12
6 6 7 17 17 16 11 17 16 10 6 6 6 6 6 6 6 5 6 9 9 11 5 10 3 4 3 2 2 1 1 1 1 1 2 4 7 9
4 10 14 14 14 9 14 15 10 7 7 6 7 7 7 7 8 7 6 3 8 10 9 8 5 6 5 4 2 2 0 2 1 0 0 1 2 3
5 4 5 7 6 6 7 8 6 6 7 7 7 7 6 7 6 5 3 4 2 1 2 3 6 5 4 5 3 2 2 1 2 1 0 1 2 4
2 3 3 4 5 5 6 6 6 7 7 7 7 7 7 7 6 6 4 3 3 3 2 3 2 4 3 2 3 5 4 3 3 2 2 3 3 5
3 2 3 3 3 5 5 6 5 7 7 7 6 7 7 7 7 6 5 4 4 5 4 3 4 1 1 3 6 1 1 0 2 3 2 3 6 4
1 2 2 3 3 4 4 5 5 6 8 6 6 7 7 6 7 6 6 6 4 4 4 4 4 3 2 1 3 4 1 2 3 3 3 3 5 5
1 2 3 3 3 3 4 4 5 5 5 6 5 5 6 6 6 6 6 4 5 4 5 3 3 3 1 1 2 1 2 1 0 1 2 3 4 10
2 3 3 3 3 3 3 3 3 4 3 4 4 5 5 5 5 6 6 6 5 4 6 4 4 7 4 1 1 1 0 3 0 2 3 3 3 3
3 4 4 3 3 3 3 3 3 3 4 4 4 4 4 4 5 5 5 5 5 4 4 6 6 4 2 2 1 1 1 1 3 5 3 3 1 3
4 4 3 3 3 3 3 2 3 3 3 4 4 4 4 4 5 4 4 5 5 5 5 5 5 4 2 3 2 1 2 1 2 2 1 3 4 4
Wind_Direction
268 272 264 289 283 298 308 246 302 304 288 267 270 247 260 277 279 287 305 311 297 293 313 336 357 6 337 351 19 25 335 150 142 141 150 149 144 139
13 20 358 317 320 282 272 273 244 266 282 257 280 264 270 283 269 261 282 311 314 299 279 286 320 5 355 333 321 45 334 2 151 154 158 171 166 158
2 344 306 307 301 312 308 290 281 253 272 291 267 285 280 269 264 270 275 289 305 323 335 301 257 220 45 342 297 170 78 340 334 326 177 214 207 186
311 310 295 320 302 284 278 280 275 266 269 285 289 279 266 265 257 269 270 284 289 297 308 323 335 236 195 123 290 252 219 201 249 282 300 283 243 212
301 295 298 300 289 280 277 274 269 275 271 279 288 270 265 271 284 269 266 275 277 289 299 295 307 313 245 202 208 240 239 213 207 229 225 233 285 240
291 286 280 280 281 279 276 266 278 286 283 274 275 283 272 269 252 259 275 267 275 283 281 282 282 285 292 278 224 228 208 206 204 211 227 253 223 223
293 289 284 287 299 298 296 288 292 282 283 282 278 277 277 266 260 255 251 276 280 256 271 276 272 261 262 307 314 277 224 223 212 206 206 206 214 234
316 309 301 303 293 302 308 301 294 288 279 276 276 270 269 262 257 258 260 269 284 249 250 277 308 288 277 274 271 271 269 251 222 212 208 201 205 205
315 310 307 309 314 301 298 295 292 286 278 279 275 279 272 266 262 259 247 241 245 247 279 277 227 268 250 253 260 262 263 255 245 227 211 199 198 204
308 302 302 304 299 302 296 291 286 285 280 274 266 261 256 257 254 262 256 244 244 256 244 263 224 248 266 252 253 252 249 250 245 230 223 222 208 204
309 307 302 310 304 310 315 320 308 297 299 296 287 276 268 267 263 257 263 237 229 231 206 245 228 252 245 258 246 246 243 242 240 235 229 227 221 215
311 307 310 318 317 329 331 322 309 319 321 313 308 278 271 265 265 252 247 256 262 274 232 213 245 203 283 253 298 254 237 245 233 233 237 233 223 219
320 314 314 317 327 333 337 323 324 334 319 314 315 318 296 260 250 237 224 222 232 240 209 188 202 181 235 296 305 308 297 281 216 214 222 228 228 220
308 309 302 327 332 340 340 338 349 338 324 323 323 327 329 326 320 309 239 219 222 233 232 211 225 192 198 206 239 262 211 66 216 213 227 250 251 229
307 323 337 337 339 337 342 352 350 341 340 338 337 332 325 315 311 308 304 266 229 225 233 206 209 213 213 213 200 221 175 186 144 138 159 209 199 181
321 323 322 332 326 329 343 346 343 349 341 336 331 325 319 328 323 325 317 339 347 33 343 239 217 228 211 219 214 233 194 229 184 197 95 265 233 223
352 349 346 342 345 343 347 348 346 351 347 338 338 337 338 339 337 348 353 346 11 356 18 6 325 246 217 188 225 231 235 235 250 270 188 279 262 233
23 348 320 325 329 332 343 343 349 349 342 338 341 346 343 341 344 352 2 8 8 9 15 10 3 358 143 55 39 324 154 29 11 309 269 264 270 263
67 307 279 298 302 322 332 340 342 343 336 342 343 346 345 343 348 357 1 6 4 357 353 0 10 42 53 350 323 32 70 31 344 348 347 304 288 273
196 245 273 280 303 319 330 337 333 339 342 342 342 340 344 341 350 359 3 350 343 337 347 354 5 352 317 299 334 241 15 155 97 358 343 316 271 271
236 250 247 271 285 304 305 314 307 325 323 328 330 338 338 342 348 349 347 342 338 346 333 323 300 288 265 198 271 263 237 342 123 11 353 343 331 329
233 240 256 256 261 276 287 297 315 330 329 332 329 324 330 332 337 336 337 341 340 325 299 301 319 324 179 231 255 187 118 333 269 270 287 328 314 336
226 225 236 244 248 256 274 289 312 306 318 323 326 326 325 336 334 330 332 339 340 337 344 338 343 354 19 9 342 111 120 40 1 336 281 302 341 359